FW5795 Weather Reports


time (UTC)temp
C
wind
direction
speed
KPH
gust
KPH
rain 1hr
cm
rain 24hr
cm
rain mn
cm
humidity
%
barometer
mb
20260505024515 15 186 6.4 12.9 0.00 0.00 0.00 45 1011.1
20260505024016 15 203 8.0 19.3 0.00 0.00 0.00 45 1011.0
20260505023515 15 197 8.0 19.3 0.00 0.00 0.00 44 1011.0
20260505023013 15 201 8.0 17.7 0.00 0.00 0.00 44 1011.0
20260505022514 16 198 8.0 16.1 0.00 0.00 0.00 44 1011.1
20260505022017 16 182 8.0 14.5 0.00 0.00 0.00 43 1011.1
20260505021512 16 160 8.0 17.7 0.00 0.00 0.00 43 1011.1
20260505021018 16 213 9.7 17.7 0.00 0.00 0.00 43 1011.1
20260505020552 16 240 6.4 19.3 0.00 0.00 0.00 42 1011.0
20260505020537 16 216 8.0 19.3 0.00 0.00 0.00 43 1011.1
20260505015752 16 200 6.4 14.5 0.00 0.00 0.00 42 1011.0
20260505015010 16 224 8.0 16.1 0.00 0.00 0.00 42 1011.0
20260505014509 16 175 9.7 22.5 0.00 0.00 0.00 42 1011.0
20260505014010 16 201 9.7 22.5 0.00 0.00 0.00 41 1010.9
20260505013510 17 163 9.7 25.7 0.00 0.00 0.00 41 1010.8
20260505013014 17 265 9.7 25.7 0.00 0.00 0.00 41 1010.8
20260505012510 17 212 8.0 22.5 0.00 0.00 0.00 41 1010.7
20260505012257 17 189 9.7 22.5 0.00 0.00 0.00 41 1010.7
20260505011508 17 182 11.3 24.1 0.00 0.00 0.00 40 1010.6
20260505011014 17 183 9.7 24.1 0.00 0.00 0.00 40 1010.5
20260505010505 17 211 9.7 20.9 0.00 0.00 0.00 40 1010.5
20260505010007 17 203 11.3 24.1 0.00 0.00 0.00 39 1010.4
20260505005507 17 251 9.7 24.1 0.00 0.00 0.00 38 1010.3
20260505005009 17 214 9.7 20.9 0.00 0.00 0.00 38 1010.2
20260505004511 17 220 11.3 27.4 0.00 0.00 0.00 38 1010.0
20260505004008 18 175 12.9 27.4 0.00 0.00 0.00 38 1010.0
20260505003506 18 188 9.7 22.5 0.00 0.00 0.00 37 1009.9
20260505003012 18 186 9.7 20.9 0.00 0.00 0.00 37 1009.7
20260505002506 18 195 11.3 27.4 0.00 0.00 0.00 36 1009.5
20260505002007 18 139 12.9 27.4 0.00 0.00 0.00 36 1009.4
20260505001746 18 247 12.9 29.0 0.00 0.00 0.00 36 1009.1
20260505001010 18 232 12.9 29.0 0.00 0.00 0.00 35 1009.0
20260505000505 19 194 12.9 33.8 0.00 0.00 0.00 34 1008.9
20260505000008 19 232 11.3 33.8 0.00 0.00 0.00 33 1008.7
20260504235507 20 201 11.3 29.0 0.00 0.00 0.00 33 1008.8
20260504235010 20 239 16.1 32.2 0.00 0.00 0.00 31 1008.6
20260504234745 20 188 11.3 32.2 0.00 0.00 0.00 31 1008.5
20260504234000 20 220 6.4 16.1 0.00 0.00 0.00 28 1008.4
20260504233735 21 166 6.4 17.7 0.00 0.00 0.00 28 1008.2
20260504232953 21 265 6.4 17.7 0.00 0.00 0.00 27 1008.2
20260504232453 21 241 4.8 14.5 0.00 0.00 0.00 27 1008.1
20260504231954 21 243 4.8 14.5 0.00 0.00 0.00 27 1008.0
20260504231451 21 276 4.8 11.3 0.00 0.00 0.00 26 1007.9
20260504230952 21 221 6.4 19.3 0.00 0.00 0.00 26 1007.9
20260504230445 21 257 8.0 19.3 0.00 0.00 0.00 26 1007.9
20260504225944 21 199 6.4 16.1 0.00 0.00 0.00 26 1007.8
20260504225722 21 234 4.8 14.5 0.00 0.00 0.00 26 1007.8
20260504225353 21 278 8.0 19.3 0.00 0.00 0.00 25 1007.8
20260504225348 21 245 6.4 17.7 0.00 0.00 0.00 25 1007.7
20260504225035 21 230 4.8 12.9 0.00 0.00 0.00 26 1007.7
20260504223438 22 228 9.7 19.3 0.00 0.00 0.00 24 1007.7
20260504222937 22 247 9.7 22.5 0.00 0.00 0.00 25 1007.6
20260504222435 22 278 9.7 27.4 0.00 0.00 0.00 25 1007.6
20260504221934 22 236 11.3 27.4 0.00 0.00 0.00 26 1007.6
20260504221435 22 230 11.3 27.4 0.00 0.00 0.00 25 1007.6
20260504220935 22 231 8.0 19.3 0.00 0.00 0.00 25 1007.6
20260504220710 22 210 6.4 17.7 0.00 0.00 0.00 26 1007.6
20260504220208 22 227 6.4 17.7 0.00 0.00 0.00 25 1007.7
20260504215422 22 221 9.7 30.6 0.00 0.00 0.00 25 1007.6
20260504214919 22 229 9.7 30.6 0.00 0.00 0.00 23 1007.7
20260504214421 22 267 8.0 20.9 0.00 0.00 0.00 24 1007.7
20260504213920 22 254 8.0 17.7 0.00 0.00 0.00 24 1007.8
20260504213419 22 205 6.4 17.7 0.00 0.00 0.00 24 1007.8
20260504212915 22 274 8.0 29.0 0.00 0.00 0.00 25 1007.7
20260504212415 22 261 9.7 29.0 0.00 0.00 0.00 24 1007.7
20260504211930 22 218 8.0 19.3 0.00 0.00 0.00 24 1007.8
20260504211411 22 261 8.0 24.1 0.00 0.00 0.00 24 1007.8
20260504210913 22 216 9.7 24.1 0.00 0.00 0.00 23 1007.8
20260504210411 22 206 9.7 20.9 0.00 0.00 0.00 24 1007.7
20260504205912 22 261 9.7 20.9 0.00 0.00 0.00 23 1007.8
20260504205644 22 278 9.7 20.9 0.00 0.00 0.00 23 1007.7
20260504204907 22 281 9.7 20.9 0.00 0.00 0.00 24 1007.9
20260504204409 22 274 9.7 17.7 0.00 0.00 0.00 24 1007.7
20260504203909 22 231 11.3 27.4 0.00 0.00 0.00 23 1007.7
20260504203409 22 226 12.9 27.4 0.00 0.00 0.00 23 1007.7
20260504203149 22 253 12.9 25.7 0.00 0.00 0.00 23 1007.6
20260504202410 22 240 11.3 25.7 0.00 0.00 0.00 22 1007.7
20260504201923 22 243 9.7 29.0 0.00 0.00 0.00 23 1007.7
20260504201648 22 222 9.7 29.0 0.00 0.00 0.00 24 1007.7
20260504200900 22 249 14.5 40.2 0.00 0.00 0.00 24 1007.7
20260504200352 22 205 16.1 40.2 0.00 0.00 0.00 22 1007.7
20260504195846 22 211 12.9 25.7 0.00 0.00 0.00 22 1007.7
20260504195345 23 215 11.3 25.7 0.00 0.00 0.00 22 1007.9
20260504194844 23 291 9.7 25.7 0.00 0.00 0.00 22 1007.8
20260504194346 23 240 11.3 24.1 0.00 0.00 0.00 22 1007.8
20260504194124 22 197 12.9 24.1 0.00 0.00 0.00 22 1007.9
20260504193345 22 236 12.9 22.5 0.00 0.00 0.00 22 1007.7
20260504192846 22 207 14.5 29.0 0.00 0.00 0.00 22 1007.8
20260504192345 22 232 12.9 29.0 0.00 0.00 0.00 21 1007.7
20260504191845 22 275 11.3 24.1 0.00 0.00 0.00 22 1007.7
20260504191345 22 302 12.9 24.1 0.00 0.00 0.00 22 1007.7
20260504190848 22 217 12.9 33.8 0.00 0.00 0.00 22 1007.8
20260504190626 22 167 14.5 33.8 0.00 0.00 0.00 22 1007.8
20260504185845 22 220 12.9 25.7 0.00 0.00 0.00 22 1008.0
20260504185627 22 243 11.3 25.7 0.00 0.00 0.00 24 1008.1
20260504184845 22 264 11.3 29.0 0.00 0.00 0.00 22 1008.1
20260504184347 22 193 9.7 29.0 0.00 0.00 0.00 24 1008.1
20260504183848 22 161 9.7 33.8 0.00 0.00 0.00 23 1008.2
20260504183341 22 149 11.3 33.8 0.00 0.00 0.00 23 1008.2
20260504183127 22 217 11.3 32.2 0.00 0.00 0.00 23 1008.3
20260504182337 22 253 12.9 32.2 0.00 0.00 0.00 22 1008.2
20260504181841 22 203 14.5 38.6 0.00 0.00 0.00 24 1008.2
20260504181335 22 142 12.9 38.6 0.00 0.00 0.00 22 1008.1
20260504180904 22 250 12.9 35.4 0.00 0.00 0.00 22 1008.1
20260504180854 22 236 11.3 29.0 0.00 0.00 0.00 23 1008.1
20260504175835 22 306 12.9 35.4 0.00 0.00 0.00 22 1008.2
20260504175335 22 224 11.3 27.4 0.00 0.00 0.00 24 1008.2
20260504174839 22 209 11.3 27.4 0.00 0.00 0.00 23 1008.2
20260504174415 22 247 9.7 19.3 0.00 0.00 0.00 23 1008.4
20260504174402 22 211 9.7 22.5 0.00 0.00 0.00 25 1008.3
20260504173330 21 292 12.9 40.2 0.00 0.00 0.00 24 1008.5
20260504172831 21 264 12.9 40.2 0.00 0.00 0.00 24 1008.5
20260504172331 21 255 12.9 33.8 0.00 0.00 0.00 24 1008.5
20260504171836 21 234 16.1 38.6 0.00 0.00 0.00 26 1008.6
20260504171613 21 217 12.9 38.6 0.00 0.00 0.00 24 1008.7
20260504171115 21 240 12.9 32.2 0.00 0.00 0.00 26 1008.7
20260504170330 21 195 14.5 32.2 0.00 0.00 0.00 25 1008.7
20260504170118 21 220 14.5 30.6 0.00 0.00 0.00 26 1008.7
20260504160111 20 280 12.9 27.4 0.00 0.00 0.00 26 1009.1
20260504150822 18 220 12.9 22.5 0.00 0.00 0.00 30 1009.9
20260504150319 18 222 12.9 25.7 0.00 0.00 0.00 31 1010.0
20260504141309 17 285 11.3 25.7 0.00 0.00 0.00 34 1010.6
20260504140806 17 287 11.3 25.7 0.00 0.00 0.00 34 1010.5
20260504140307 16 243 11.3 25.7 0.00 0.00 0.00 36 1010.5
20260504130758 15 245 9.7 22.5 0.00 0.00 0.00 37 1011.1
20260504130252 15 248 8.0 22.5 0.00 0.00 0.00 38 1011.2
20260504120233 10 226 6.4 19.3 0.00 0.00 0.00 49 1011.7
20260504110223 7 203 0.0 0.0 0.00 0.00 0.00 55 1011.8
20260504100446 7 203 0.0 0.0 0.00 0.00 0.00 54 1011.7
20260504081653 6 209 1.6 4.8 0.00 0.00 0.00 57 1011.6
20260504081152 6 209 1.6 4.8 0.00 0.00 0.00 57 1011.6
20260504080652 6 208 3.2 4.8 0.00 0.00 0.00 57 1011.4
20260504080443 6 214 1.6 4.8 0.00 0.00 0.00 56 1011.6
20260504070150 5 268 1.6 3.2 0.00 0.00 0.00 62 1011.5
20260504060134 2 241 0.0 3.2 0.00 0.00 0.00 66 1011.4
20260504050621 2 284 0.0 3.2 0.00 0.00 0.00 62 1011.6
20260504050108 2 284 0.0 3.2 0.00 0.00 0.00 61 1011.6
20260504045607 2 284 0.0 0.0 0.00 0.00 0.00 61 1011.7
20260504045108 2 284 0.0 0.0 0.00 0.00 0.00 61 1011.6
20260504044845 2 284 0.0 0.0 0.00 0.00 0.00 61 1011.5
20260504044108 2 284 0.0 0.0 0.00 0.00 0.00 61 1011.6
20260504043607 2 284 0.0 0.0 0.00 0.00 0.00 60 1011.5
20260504043109 2 284 0.0 0.0 0.00 0.00 0.00 60 1011.4
20260504042604 2 284 0.0 0.0 0.00 0.00 0.00 60 1011.4
20260504042101 2 284 0.0 0.0 0.00 0.00 0.00 60 1011.4
20260504041603 2 284 0.0 0.0 0.00 0.00 0.00 60 1011.4
20260504041101 2 284 0.0 0.0 0.00 0.00 0.00 60 1011.5
20260504040600 2 284 0.0 0.0 0.00 0.00 0.00 59 1011.5
20260504035558 2 284 0.0 0.0 0.00 0.00 0.00 58 1011.3
20260504035051 3 284 0.0 0.0 0.00 0.00 0.00 58 1011.3
20260504034551 3 284 0.0 0.0 0.00 0.00 0.00 57 1011.2
20260504034051 3 284 0.0 0.0 0.00 0.00 0.00 57 1011.3
20260504033554 3 284 0.0 0.0 0.00 0.00 0.00 57 1011.3
20260504033054 3 284 0.0 0.0 0.00 0.00 0.00 57 1011.2
20260504032552 3 284 0.0 0.0 0.00 0.00 0.00 57 1011.2
20260504032051 3 284 0.0 0.0 0.00 0.00 0.00 56 1011.2
20260504031552 3 284 0.0 0.0 0.00 0.00 0.00 56 1011.2
20260504031055 3 284 0.0 0.0 0.00 0.00 0.00 56 1011.3
20260504030551 3 284 0.0 0.0 0.00 0.00 0.00 56 1011.3
20260504025552 4 284 0.0 0.0 0.00 0.00 0.00 55 1011.2